This is the latest recevied weather packets stored in our database for station/object VA3VWX-13. If no packets are shown the sender has not sent any weather packets the latest 10 day(s).
| Time | Temp. | Humidity | Pressure | Rain* | Wind** | Luminosity | Snow |
|---|---|---|---|---|---|---|---|
| 1777347227 | 12.22° C | 67% | 1013.9 hPa | 0 mm | - | - | - |
| 1777346904 | 11.67° C | 67% | 1013.9 hPa | 0 mm | - | - | - |
| 1777346612 | 11.67° C | 68% | 1013.7 hPa | 0 mm | - | - | - |
| 1777346319 | 11.67° C | 68% | 1013.6 hPa | 0 mm | - | - | - |
| 1777346016 | 11.11° C | 69% | 1013.7 hPa | 0 mm | - | - | - |
| 1777345703 | 11.11° C | 69% | 1013.9 hPa | 0 mm | - | - | - |
| 1777345421 | 11.11° C | 69% | 1014 hPa | 0 mm | - | - | - |
| 1777345111 | 10.56° C | 69% | 1014 hPa | 0 mm | - | - | - |
| 1777344810 | 11.11° C | 68% | 1014.1 hPa | 0 mm | - | - | - |
| 1777344517 | 10.56° C | 68% | 1014.4 hPa | 0 mm | - | - | - |
| 1777344205 | 10.56° C | 68% | 1014.6 hPa | 0 mm | - | - | - |
| 1777343607 | 10.56° C | 66% | 1014.7 hPa | 0 mm | - | - | - |
| 1777343313 | 11.11° C | 64% | 1014.9 hPa | 0 mm | - | - | - |
| 1777343010 | 11.67° C | 63% | 1015 hPa | 0 mm | - | - | - |
| 1777342717 | 11.67° C | 61% | 1015.1 hPa | 0 mm | - | - | - |
| 1777342423 | 12.22° C | 60% | 1015.3 hPa | 0 mm | - | - | - |
| 1777342130 | 12.22° C | 59% | 1015.3 hPa | 0 mm | - | - | - |
| 1777341848 | 12.22° C | 57% | 1015.4 hPa | 0 mm | - | - | - |
| 1777341508 | 12.78° C | 55% | 1015.6 hPa | 0 mm | - | - | - |
| 1777341216 | 13.33° C | 53% | 1015.8 hPa | 0 mm | - | - | - |
| 1777340923 | 13.89° C | 53% | 1015.6 hPa | 0 mm | - | - | - |
| 1777340620 | 13.89° C | 52% | 1015.8 hPa | 0 mm | - | - | - |
| 1777340306 | 13.89° C | 51% | 1015.9 hPa | 0 mm | - | - | - |
| 1777340013 | 13.89° C | 51% | 1016.2 hPa | 0 mm | - | - | - |
| 1777339712 | 13.89° C | 51% | 1016.3 hPa | 0 mm | - | - | - |
* Rain latest hour (hover to see other rain measurements)
** Current wind speed in m/s (hover to see current wind gust speed)